Theta_e
300 300 300 300 300 300 300 299 299 298 298 298 298 297 297 297 298 297 298 299 303 307 311 313 315 320 322 321 319 318 317 315 314 315 314 314 314 314 313 313 313 312 312
299 298 298 299 300 300 300 299 299 298 298 298 298 298 298 298 298 298 298 299 301 305 309 312 314 318 323 322 319 317 316 315 314 315 314 314 313 313 312 312 312 311 310
295 295 296 296 297 298 298 299 299 299 298 298 298 298 298 298 298 298 298 298 299 301 305 309 312 318 321 322 318 316 316 315 315 313 314 313 312 312 311 310 310 310 309
291 291 293 293 296 296 296 296 297 297 298 297 297 298 298 298 298 298 298 298 298 298 301 306 309 316 320 320 318 316 315 315 314 315 313 312 311 311 310 310 309 309 308
288 289 290 292 292 293 294 294 295 295 295 296 297 298 298 297 298 298 298 297 298 298 299 302 306 312 316 316 316 314 314 315 314 314 313 311 310 310 309 309 309 308 308
287 288 288 288 289 290 291 292 292 294 294 294 295 296 298 298 299 297 297 297 297 297 298 300 303 308 312 312 313 312 314 314 313 313 312 311 310 310 309 308 308 308 307
286 286 286 286 287 287 288 289 291 291 292 294 292 294 297 297 296 297 297 296 295 295 297 298 302 305 308 310 310 311 312 313 313 312 311 311 310 310 309 308 307 307 307
286 285 285 285 285 286 285 286 287 288 290 292 289 289 288 293 296 295 294 293 294 294 295 297 299 301 304 305 307 308 310 311 312 312 311 310 310 310 309 309 308 307 306
285 285 284 284 284 285 284 284 285 285 285 287 289 288 284 286 290 294 293 292 293 293 294 295 297 299 301 301 302 304 307 309 309 309 310 310 309 310 309 308 309 308 307
284 284 284 284 283 284 283 283 284 283 284 283 286 288 290 290 285 285 294 292 290 291 293 294 295 296 298 298 298 298 300 305 305 306 306 306 307 308 309 308 308 307 306
283 282 283 282 282 283 283 283 282 282 283 282 283 285 286 288 289 287 284 288 292 292 292 293 294 295 295 296 296 296 298 301 303 303 302 303 304 305 306 306 306 305 305
281 281 281 281 281 281 281 282 282 281 281 282 283 284 284 283 285 286 286 287 289 292 290 291 292 293 294 294 294 294 296 299 301 301 301 301 302 303 304 305 304 304 304
280 280 280 280 280 280 281 281 280 280 280 280 282 283 285 285 287 288 286 286 286 290 289 290 291 292 292 293 293 292 294 298 300 301 301 301 301 301 302 302 302 302 302
279 280 280 280 279 280 280 280 280 280 281 281 282 283 284 286 287 287 285 285 284 286 288 289 289 290 291 291 292 291 293 296 298 299 300 300 301 300 300 300 300 300 300
279 279 279 278 278 279 279 279 279 279 280 281 282 283 284 285 286 286 288 287 285 282 284 288 287 288 288 290 291 290 292 293 296 296 297 297 298 298 298 298 299 299 299
278 278 277 277 277 277 278 278 278 279 279 280 281 282 283 284 285 285 286 287 286 284 282 288 287 286 288 288 289 288 289 289 291 291 292 293 293 294 294 295 296 296 297
277 277 276 276 276 276 276 276 277 277 278 280 281 280 281 283 284 284 286 286 285 286 283 287 287 286 286 286 287 287 287 288 288 289 290 290 291 291 291 292 292 294 295
277 276 276 275 274 274 275 275 275 275 276 277 279 279 280 281 283 284 285 285 285 286 285 283 285 284 285 285 285 284 284 285 285 285 287 288 289 289 290 290 291 292 292
276 276 275 274 274 274 274 275 275 275 276 277 279 279 280 281 281 283 284 284 284 284 285 283 282 283 283 284 282 282 282 282 283 283 285 287 288 288 289 290 290 290 291
274 274 274 274 273 273 273 273 275 276 277 278 280 282 282 281 281 283 283 283 283 282 282 282 281 281 281 281 281 280 279 281 281 282 283 284 284 285 286 287 288 288 288
274 274 273 272 272 272 273 273 275 275 276 277 278 281 282 282 283 284 283 282 282 281 280 280 279 279 279 279 278 280 279 280 281 282 281 281 282 283 283 285 285 286 287
270 271 270 270 270 271 273 275 276 275 276 276 277 280 281 282 283 284 285 285 283 281 280 280 279 278 278 279 280 279 279 277 276 281 280 280 282 281 282 283 283 285 286
268 267 268 269 269 270 273 275 275 275 275 276 278 280 280 283 283 283 283 284 285 284 283 281 279 279 279 280 280 279 278 278 277 279 280 277 281 279 282 282 284 285 286
265 265 266 267 268 269 273 274 275 275 276 277 278 280 280 282 282 281 281 281 281 282 283 283 282 282 282 282 281 281 280 278 278 279 279 274 278 278 281 282 283 284 285
264 264 266 266 265 266 271 274 275 275 275 277 279 280 280 281 282 284 280 278 278 279 282 283 283 284 283 283 282 280 277 276 275 275 277 277 277 277 278 280 281 281 283
264 264 264 264 265 267 271 273 274 275 275 275 276 279 280 280 281 282 280 278 276 277 278 279 280 282 281 281 282 281 279 276 275 273 274 275 274 276 274 278 278 279 280
Wind_Speed
8 7 7 7 7 7 7 7 7 7 8 8 8 8 9 9 9 6 6 13 17 19 19 20 20 22 17 18 15 14 15 14 12 11 13 11 10 9 10 9 8 6 5
9 9 9 9 9 8 8 7 8 8 8 9 10 10 10 9 9 10 7 8 15 18 20 21 21 22 20 20 16 16 16 15 13 14 12 11 10 11 9 8 8 6 5
12 12 9 9 10 10 12 10 10 9 9 9 11 10 10 11 10 11 9 8 10 16 19 20 21 23 22 19 15 16 17 17 14 15 14 13 11 10 9 7 6 6 5
14 12 9 10 11 10 10 10 10 10 10 10 11 10 10 10 12 12 10 10 9 9 12 20 21 23 19 17 16 17 17 17 17 15 14 13 12 11 10 9 8 7 6
14 11 9 10 12 9 9 10 10 11 11 11 11 11 10 11 12 11 13 13 13 11 8 15 19 19 18 18 18 17 19 18 17 16 15 14 13 12 10 9 8 7 6
14 11 10 11 11 9 10 10 13 11 11 11 12 12 11 11 11 10 12 12 12 12 12 12 9 10 15 19 19 19 19 18 20 18 17 16 14 13 11 8 8 7 6
12 12 10 11 11 10 12 13 12 15 11 10 10 11 11 11 14 11 10 9 10 11 11 11 9 8 9 21 20 21 20 19 19 19 18 18 17 15 13 11 9 8 7
12 11 12 11 12 10 13 12 13 12 11 10 11 12 11 11 9 10 7 7 9 6 8 11 12 12 10 9 12 21 22 21 20 20 20 19 17 15 14 13 12 9 8
13 13 13 11 12 11 10 12 12 15 13 11 13 10 10 10 8 6 8 5 7 5 6 8 10 11 12 10 12 14 20 19 18 17 15 15 14 16 15 14 13 13 10
13 14 14 13 13 10 12 11 11 12 13 14 10 10 14 16 16 15 10 6 5 6 7 6 8 10 11 9 13 12 11 12 15 16 16 15 15 15 15 13 13 12 10
12 13 14 14 13 10 12 14 14 13 10 12 12 11 13 13 15 14 16 11 7 7 7 7 8 9 11 10 9 10 17 16 16 16 15 14 15 15 16 14 13 12 11
9 12 13 13 14 13 14 13 15 16 14 14 13 13 13 12 12 11 11 13 15 10 5 6 7 8 9 9 11 14 17 18 19 19 16 15 14 14 15 14 13 12 12
9 12 14 14 12 14 14 15 15 15 15 14 15 13 13 14 13 14 13 14 12 7 6 6 6 7 8 8 9 13 16 18 19 19 17 17 16 15 15 14 13 13 12
11 14 13 14 16 16 14 13 12 12 14 14 18 17 14 13 12 13 12 13 10 7 8 11 4 6 6 7 10 14 10 17 18 18 18 18 18 17 16 15 14 13 12
11 14 15 16 16 16 16 15 12 14 14 15 14 15 12 11 11 12 13 11 4 7 4 6 4 4 4 6 9 9 8 11 14 13 12 12 12 12 12 14 14 15 16
15 15 16 16 16 16 16 16 14 14 15 13 12 15 15 12 13 11 11 10 8 9 9 2 4 3 6 7 8 7 7 8 8 8 9 9 10 11 12 14 15 16 17
14 15 15 16 16 16 16 15 16 17 17 16 16 15 18 17 12 10 9 9 9 8 10 3 2 2 7 9 7 4 4 5 4 8 9 10 10 11 13 14 15 15 16
15 15 15 16 16 16 16 16 17 17 16 17 17 17 17 13 15 13 10 12 9 10 9 12 6 4 4 4 6 7 5 4 4 7 10 11 13 13 14 14 14 15 16
16 16 16 16 16 17 17 16 16 17 17 18 18 19 18 16 15 12 12 9 8 6 6 3 2 2 3 2 3 4 3 3 3 6 9 10 12 12 12 12 13 14 14
16 17 15 16 17 17 18 18 16 16 18 18 19 17 16 15 16 15 9 9 7 5 4 3 2 2 2 3 2 2 3 3 3 3 5 6 6 7 10 12 13 13 14
17 15 17 17 17 16 13 16 16 17 18 18 19 17 16 16 23 19 7 9 8 6 5 4 4 3 4 3 4 4 4 3 2 3 3 3 3 3 4 8 9 10 11
18 18 18 18 18 13 25 28 24 16 17 18 19 15 14 16 16 20 18 17 12 9 9 6 6 6 7 6 5 5 4 3 2 2 3 3 2 5 5 5 10 13 14
18 18 17 17 16 16 27 28 29 15 16 17 18 14 13 11 10 6 5 3 9 16 13 8 8 7 8 8 6 6 5 4 3 3 2 5 4 6 5 6 12 13 15
16 16 16 17 14 15 28 29 27 16 14 17 17 13 12 7 6 7 7 5 5 4 4 3 8 7 7 7 8 6 5 3 2 3 3 4 2 4 4 6 14 16 16
16 16 16 16 18 15 27 26 23 14 14 13 13 11 9 7 4 8 5 4 4 4 2 7 8 9 8 9 7 5 5 4 2 2 3 3 1 2 3 7 6 10 11
15 15 18 15 18 15 24 27 23 11 9 9 13 9 14 7 7 7 6 7 6 5 4 2 2 4 3 3 4 7 5 5 3 2 2 3 1 2 3 1 2 2 3
Wind_Direction
356 343 339 330 324 324 318 317 312 308 307 301 296 289 290 289 285 280 282 282 281 281 276 268 261 256 252 211 209 227 234 238 233 223 220 211 201 196 193 192 182 179 186
1 353 342 338 332 332 319 311 304 303 301 296 295 289 281 279 275 277 274 275 267 271 273 271 261 257 240 215 210 227 234 231 216 221 219 208 205 195 192 189 195 185 189
2 353 344 340 338 332 325 317 307 299 293 292 289 289 287 281 280 275 270 267 269 259 261 267 263 261 256 217 211 228 227 227 213 211 205 198 197 195 190 188 193 197 195
1 351 343 339 336 330 330 325 320 310 302 297 296 290 284 281 278 276 273 266 258 255 251 251 257 261 233 219 223 226 228 223 215 201 200 200 194 194 195 190 191 195 205
357 352 341 335 333 329 329 328 322 315 306 301 294 291 284 282 280 274 268 263 257 251 243 245 246 257 241 232 231 225 228 220 213 200 198 197 198 195 196 194 200 203 206
350 346 341 338 334 330 328 325 318 312 304 298 295 290 281 272 270 264 262 262 252 245 243 237 233 236 220 224 227 226 226 216 212 200 201 195 201 198 196 199 206 215 218
342 338 339 332 332 330 326 323 317 316 312 309 300 292 282 269 262 261 257 253 261 257 245 235 225 223 220 218 221 221 224 219 215 204 202 202 202 204 204 203 213 220 224
333 330 330 326 328 321 324 325 322 316 309 311 301 301 298 295 256 250 256 245 247 243 248 240 230 220 213 215 218 223 223 217 213 210 208 209 209 213 213 213 210 222 235
324 325 323 319 319 318 317 320 321 319 310 307 298 284 293 273 320 285 251 240 244 231 228 234 229 224 217 214 215 221 228 223 214 217 213 213 212 213 212 218 224 221 224
319 323 321 320 318 315 310 309 314 312 308 305 299 287 278 275 280 286 258 254 249 240 235 220 223 222 218 215 212 209 219 222 218 214 210 213 215 227 219 220 227 230 235
314 313 313 314 314 311 307 305 307 303 297 294 292 290 277 281 272 269 276 260 248 239 231 224 212 210 209 208 207 210 210 212 213 210 214 216 217 216 220 217 223 228 237
311 309 311 311 308 306 306 306 303 299 296 290 286 283 276 276 281 274 270 264 257 242 218 219 214 208 202 200 200 200 206 210 209 206 209 214 217 221 222 219 221 226 233
313 309 311 307 305 303 301 303 302 299 297 292 285 284 282 278 281 279 271 276 260 247 238 227 214 206 199 191 194 185 192 202 205 205 209 211 211 214 219 222 227 234 240
304 305 303 305 302 301 301 297 297 290 288 289 287 287 284 275 280 279 269 282 261 245 212 237 210 202 185 178 173 170 181 189 197 204 209 210 211 210 213 218 230 236 248
301 304 305 304 302 299 296 292 287 286 285 285 288 288 287 284 278 281 273 262 288 304 249 214 210 201 167 157 155 156 155 161 168 173 177 181 188 202 214 228 237 246 252
300 302 304 304 304 302 299 296 292 287 286 282 283 288 290 283 278 276 271 255 257 263 273 211 205 205 174 145 140 143 149 155 168 181 191 198 208 220 229 236 242 247 250
298 298 301 304 304 303 302 299 293 294 293 293 290 290 289 288 279 277 258 254 254 247 257 228 204 147 166 142 144 134 157 170 178 196 204 215 225 232 239 242 246 246 245
297 295 300 301 304 302 301 298 297 297 293 293 291 287 283 288 284 277 262 255 244 243 245 248 172 157 152 162 161 155 163 176 190 208 222 227 230 234 239 241 244 246 246
300 295 299 301 303 304 304 299 293 292 289 285 286 283 276 278 281 274 252 244 244 233 222 196 152 104 101 150 149 116 160 198 208 219 226 229 232 233 235 239 245 245 248
302 299 298 299 300 302 301 296 291 294 294 292 292 286 274 266 271 272 238 237 231 220 206 200 146 120 119 110 99 166 190 194 179 197 226 237 241 244 245 247 249 252 255
302 302 304 300 300 299 298 301 298 295 293 299 298 287 288 266 267 255 225 218 204 202 188 182 176 165 168 172 198 181 186 164 222 229 217 203 193 211 230 245 250 251 247
308 302 302 301 301 300 305 304 300 299 299 297 294 294 295 273 259 246 223 218 195 185 187 180 179 195 206 209 195 186 173 174 199 170 189 176 216 247 244 240 247 250 250
311 305 302 303 302 300 304 307 307 299 292 293 293 291 299 280 215 205 216 209 218 200 194 190 199 203 199 200 181 181 186 194 200 159 191 271 231 257 256 253 250 250 248
308 306 304 299 309 307 310 309 306 298 294 290 291 285 299 288 184 186 193 196 204 209 197 188 197 199 197 182 174 190 199 177 181 242 184 250 225 247 266 261 257 258 259
309 305 303 325 309 304 310 315 311 305 293 299 310 293 296 315 309 211 163 189 211 226 236 199 179 178 193 198 193 157 173 178 185 227 187 231 275 272 268 273 279 270 261
322 324 308 309 301 303 306 317 316 302 321 314 308 294 300 282 265 240 180 183 203 203 191 182 112 172 83 70 83 176 167 184 189 243 161 185 186 317 309 276 292 296 308